Regional Weather Roundup
Issued by NWS

Home | Current Version | Previous Version | Graphics & Text | Print | Product List | Glossary On
Versions: 1 2 3 4 5 6 7 8 9 10 11 12 13 14 15 16 17 18 19 20 21 22 23 24 25 26 27 28 29 30 31 32 33 34 35 36 37 38 39 40 41 42 43 44 45 46 47 48 49 50
000
ASUS43 KMKX 041421
RWRWI

WISCONSIN REGIONAL WEATHER ROUNDUP
NATIONAL WEATHER SERVICE MILWAUKEE/SULLIVAN WI
900 AM CDT FRI SEP 04 2015

NOTE: "FAIR" INDICATES FEW OR NO CLOUDS BELOW 12,000 FEET WITH NO
SIGNIFICANT WEATHER AND/OR OBSTRUCTIONS TO VISIBILITY.

WIZ001-002-006>008-014>016-023>028-041500-
NORTHWEST WISCONSIN

CITY           SKY/WX    TMP DP  RH WIND       PRES   REMARKS
SUPERIOR ARPT  CLOUDY    60  59  94 NE8       30.01S
ASHLAND        SUNNY     65  64  97 E5        30.02F
HAYWARD        CLOUDY    70  62  76 S8        30.03R
SIREN          CLOUDY    74  65  74 SE13G21   29.97S
CUMBERLAND     CLOUDY    68  63  83 SE9       30.01S
RICE LAKE      CLOUDY    70  63  79 SE7       30.02S
CHETEK         CLOUDY    70  65  83 SE8       30.02S
LADYSMITH      SUNNY     69  64  84 SE9       30.05S
EAU CLAIRE     CLOUDY    72  64  76 SE6       30.00S
MENOMONIE      SUNNY     73  67  81 E9        30.00S
NEW RICHMOND   SUNNY     73  65  76 SE10G17   29.97S
OSCEOLA        SUNNY     73  67  79 SE9       29.99S
$$

WIZ003>005-009-010-017-018-041500-
NORTH CENTRAL WISCONSIN

CITY           SKY/WX    TMP DP  RH WIND       PRES   REMARKS
MANITOWISH WTR SUNNY     66  65  95 SE6       30.07F
ARBOR VITAE    SUNNY     68  64  88 SE5       30.07F
WOODRUFF       SUNNY     68  64  88 SE5       30.07F
RHINELANDER    SUNNY     65  62  90 E7        30.09S
EAGLE RIVER    SUNNY     68  62  82 SE3       30.09R
LAND O LAKES   SUNNY     68  62  82 SE5       30.10S
PHILLIPS       SUNNY     68  63  85 SE7       30.05S
TOMAHAWK       SUNNY     64  64  97 E3        30.07F
MEDFORD        MOSUNNY   66  64  93 SE6       30.05F
MERRILL        SUNNY     66  65  96 E6        30.07S
$$

WIZ029-030-035-036-043>047-041500-
CENTRAL WISCONSIN

CITY           SKY/WX    TMP DP  RH WIND       PRES   REMARKS
WAUSAU         PTSUNNY   66  62  87 SE6       30.04S
MOSINEE        CLOUDY    64  64 100 SE6       30.07R FOG
MARSHFIELD     CLOUDY    65  61  87 SE9       30.05S FOG
STEVENS POINT  CLOUDY    63  63 100 E7        30.06S FOG
WAUPACA        CLOUDY    67  67  97 NE3       30.04S FOG
WAUTOMA        CLOUDY    67  67 100 NE6       30.04S
WISC RAPIDS    CLOUDY    65  62  90 SE6       30.05S
CAMP DOUGLAS   PTSUNNY   70  70 100 E8        30.03R
$$

WIZ011>013-019>022-031-037>040-048>050-041500-
NORTHEAST WISCONSIN

CITY           SKY/WX    TMP DP  RH WIND       PRES   REMARKS
ANTIGO         SUNNY     68  65  89 E5        30.08S
SHAWANO        NOT AVBL
OCONTO         PTSUNNY   67  67 100 CALM      30.04S
STURGEON BAY   PTSUNNY   70  64  83 NE5       30.06R
GREEN BAY      CLOUDY    68  65  90 NE8       30.04S
MANITOWOC      CLOUDY    68  66  93 MISG      30.03R
APPLETON       CLOUDY    66  66 100 N7        30.02S FOG
CLINTONVILLE   CLOUDY    66  63  88 NE6       30.04F
OSHKOSH        CLOUDY    69  64  84 N8        30.02S
$$

WIZ032>034-041-042-053>061-041500-
SOUTHWEST WISCONSIN

CITY           SKY/WX    TMP DP  RH WIND       PRES   REMARKS
LA CROSSE      SUNNY     74  67  78 E7        29.99S
SPARTA         CLOUDY    72  63  74 CALM      30.03R
VIROQUA          N/A     72  67  85 SE8       30.03S
BOSCOBEL       SUNNY     76  68  76 NE5       30.01R
PRAIRIE DU CHI SUNNY     73  67  81 E3        30.00R
PLATTEVILLE    SUNNY     73  69  88 E12       30.02R
$$

WIZ056-057-062-063-064-067-068-041500-
SOUTH CENTRAL WISCONSIN

CITY           SKY/WX    TMP DP  RH WIND       PRES   REMARKS
REEDSBURG      CLOUDY    69  66  89 E3        30.03R
BARABOO/DELLS  CLOUDY    68  64  86 NE7       30.04R FOG
LONE ROCK      MOSUNNY   73  67  81 E6        30.02S
MINERAL POINT  MOSUNNY   73  68  83 E7        30.03R
MADISON        CLOUDY    71  66  84 NE5       30.04R HAZE
MIDDLETON      CLOUDY    72  68  87 NE5       30.04R
WATERTOWN      CLOUDY    65  65 100 E3        30.03S FOG
MONROE         SUNNY     72  68  88 CALM      30.03R
JANESVILLE     MOSUNNY   73  70  88 CALM      30.02R FOG
$$

WIZ051-052-058>065-066-070>072-041500-
SOUTHEAST WISCONSIN

CITY           SKY/WX    TMP DP  RH WIND       PRES   REMARKS
MILWAUKEE      CLOUDY    68  64  87 W5        30.02S
WAUKESHA       CLOUDY    64  63  94 NE3       30.04S FOG
MILWAUKEE/TIMM CLOUDY    68  63  83 N5        30.03R
RACINE         CLOUDY    70  65  84 N5        30.05R
BURLINGTON     CLOUDY    68  64  88 CALM      30.03R
KENOSHA        CLOUDY    67  64  90 NE3       30.04R FOG
FOND DU LAC    CLOUDY    70  65  84 NE5       30.03R
SHEBOYGAN      CLOUDY    68  66  93 NE9       30.02R
WEST BEND      CLOUDY    66  63  88 CALM      30.03R
JUNEAU         CLOUDY    65  64  96 NE6       30.05R
$$

LSZ147-162-041500-
LAKE SUPERIOR

STATION/POSITION TIME  TEMP    WIND        PRES    WAVE
                       AIR SEA DIR/SP/G            HT/PER
                 (UTC) (F)     (DEG/KT/KT) (MB)    (FT/S)
W MID LAKE BUOY  1350   60 56   90/  8/  8 1017.4F   0
DEVILS ISLAND    1400   61      80/  6/  6 1016.9F
PORT WING        1300   56      CALM  /  2 1016.6
SAXON HARBOR     1300   58        CALM     1016.6R
$$

LMZ867-665-643>646-041500-
LAKE MICHIGAN

STATION/POSITION TIME  TEMP    WIND        PRES    WAVE
                       AIR SEA DIR/SP/G            HT/PER
                 (UTC) (F)     (DEG/KT/KT) (MB)    (FT/S)
CHAMBERS ISLAND  1300   69      10/  6/  8 1016.9R
S GREEN BAY BUOY 1400   65 66  340/  4/  6 1018.6R
N MID LAKE BUOY  1350   67 66  100/ 12/ 14 1016.1F   2/ 4
NORTHPORT PIER   1300   67      70/ 11/ 13 1016.6R
SISTER BAY       1311   72     150/  4/  8   N/A
ALGOMA LAKESHORE 1314          330/  2/  5   N/A
KEWAUNEE LAKESHO 1400   67      20/  4/  9 1016.0R
SHEBOYGAN LAKESH 1400   61      30/ 10/ 11 1016.9R
PORT WASHINGTON  1300   69     360/  3/  5 1016.9R
ATWATER BUOY     1400   65     270/  4/  4 1018.3R
MILWAUKEE LAKESH 1410   68     360/  6/  9   N/A
S MID LAKE BUOY  1350   67 71  290/  6/  8 1015.9R   1/ 4
KENOSHA   LAKESH 1400   62      10/  2/  6 1016.9R
$$

TC  - TEMPERATURE IN CELSIUS
VSB - VISIBILITY IN STATUTE MILES
WCI - WIND CHILL INDEX
HX  - HEAT INDEX



USA.gov is the U.S. government's official web portal to all federal, state and local government web resources and services.